Location: Grantsboro
(35.1404°N, 76.8424°W)
Time: 09:43:02
(UTC+00:00)

SEDSat Delta rocket - Pass Details

Date: 18 January 2020
Orbit: 533 x 1000 km, 31.4° (Epoch: 19 February)

Event Time Altitude Azimuth Distance (km) Brightness Sun altitude
Exits shadow 10:24:08 37° 235° (SW) 1,287 4.3 -22.3°
Maximum altitude 10:26:16 58° 175° (S) 942 3.9 -21.9°
Drops below altitude 10° 10:31:30 10° 97° (E) 2,238 7.1 -20.8°
Sets 10:33:48 0° 93° (E) 3,085 8.2 -20.4°
